Weather History for Tijuana, Mexico

Change the Weather History Date:

Friday, December 14, 2012

  Actual Average Record
Temperature  
Mean Temperature 52 °F -  
Max Temperature 57 °F 67 °F 78 °F (2004)
Min Temperature 48 °F 46 °F 37 °F (2013)
Degree Days  
Heating Degree Days 12    
Growing Degree Days 2 (Base 50)    
Moisture  
Dew Point 42 °F    
Average Humidity 69    
Maximum Humidity 100    
Minimum Humidity 48    
Precipitation  
Precipitation 0.50 in - - ()
Sea Level Pressure  
Sea Level Pressure 29.95 in    
Wind  
Wind Speed 5 mph ()    
Max Wind Speed 13 mph    
Max Gust Speed -    
Visibility 5.9 miles    
Events Rain    
Averages and records for this station are not official NWS values.
T = Trace of Precipitation, MM = Missing Value Source: Averaged Metar Reports

Daily Weather History Graph

Daily Weather History Graph

Search for Another Location

Airport:

Trip Planner

Search our weather history database for the weather conditions in past years. The results will help you decide how hot, cold, wet, or windy it might be!

Date:

Astronomy

Dec. 14, 2012 Rise Set
Actual Time 6:41 AM PST 4:43 PM PST
Civil Twilight 6:14 AM PST 5:10 PM PST
Nautical Twilight 5:44 AM PST 5:41 PM PST
Astronomical Twilight 5:14 AM PST 6:11 PM PST
Moon 7:53 AM PST (12/14) 6:37 PM PST (12/14)
Length of Visible Light 10h 56m
Length of Day
10h 01m
Waxing Crescent, 3% of the Moon is Illuminated
Dec 14
Waxing Crescent
Dec 19
First Quarter
Dec 28
Full
Jan 4
Last Quarter
Jan 11
New

Hourly Weather History & Observations

Time (PST) Temp. Dew Point Humidity Pressure Visibility Wind Dir Wind Speed Gust Speed Precip Events Conditions
12:43 AM 50.0 °F 39.2 °F 66% 29.84 in 7.0 mi WNW 6.9 mph - N/A   Mostly Cloudy
1:38 AM 50.0 °F 41.0 °F 71% 29.83 in 5.0 mi SW 11.5 mph - N/A Rain Rain
1:45 AM 50.0 °F 39.2 °F 66% 29.83 in 7.0 mi WSW 10.4 mph - N/A   Mostly Cloudy
2:42 AM 48.2 °F 41.0 °F 76% 29.83 in 7.0 mi Calm Calm - N/A   Mostly Cloudy
3:44 AM 48.2 °F 42.8 °F 82% 29.87 in 7.0 mi Calm Calm - N/A   Mostly Cloudy
4:51 AM 48.2 °F 41.0 °F 76% 29.85 in 7.0 mi Calm Calm - N/A   Mostly Cloudy
5:43 AM 48.2 °F 41.0 °F 76% 29.87 in 7.0 mi Calm Calm - N/A   Overcast
6:48 AM 48.2 °F 41.0 °F 76% 29.95 in 8.0 mi Calm Calm - N/A   Mostly Cloudy
7:44 AM 50.0 °F 50.0 °F 100% 29.94 in 7.0 mi East 4.6 mph - N/A   Mostly Cloudy
8:52 AM 55.4 °F 39.2 °F 54% 29.96 in 6.0 mi South 4.6 mph - N/A   Mostly Cloudy
9:44 AM 57.2 °F 37.4 °F 48% 29.99 in 7.0 mi SW 11.5 mph - N/A   Mostly Cloudy
10:49 AM 57.2 °F 39.2 °F 51% 29.98 in 7.0 mi West 5.8 mph - N/A   Mostly Cloudy
11:49 AM 57.2 °F 37.4 °F 48% 29.97 in 7.0 mi WSW 8.1 mph - N/A   Mostly Cloudy
12:47 PM 55.4 °F 42.8 °F 63% 30.00 in 7.0 mi West 10.4 mph - N/A   Mostly Cloudy
1:45 PM 57.2 °F 39.2 °F 51% 29.96 in 7.0 mi West 11.5 mph - N/A   Mostly Cloudy
2:50 PM 55.4 °F 41.0 °F 58% 29.96 in 7.0 mi South 11.5 mph - N/A   Overcast
3:17 PM 55.4 °F 41.0 °F 58% 29.96 in 4.0 mi WSW 12.7 mph - N/A   Light Drizzle
3:50 PM 51.8 °F 46.4 °F 82% 30.03 in 5.0 mi West 9.2 mph - N/A   Overcast
4:48 PM 51.8 °F 44.6 °F 76% 29.98 in 4.0 mi SSE 6.9 mph - N/A   Light Drizzle
5:44 PM 51.8 °F 44.6 °F 76% 30.01 in 4.0 mi SW 9.2 mph - N/A   Light Drizzle
6:46 PM 51.8 °F 41.0 °F 67% 30.03 in 4.0 mi Calm Calm - N/A   Light Drizzle
7:07 PM 51.8 °F 41.0 °F 67% 30.01 in 4.0 mi SE 6.9 mph - N/A Rain Rain
7:44 PM 50.0 °F 42.8 °F 76% 30.01 in 5.0 mi Calm Calm - N/A   Scattered Clouds
8:50 PM 50.0 °F 42.8 °F 76% 30.01 in 5.0 mi Calm Calm - N/A   Light Drizzle
9:40 PM 50.0 °F 42.8 °F 76% 30.05 in 4.0 mi East 6.9 mph - N/A   Drizzle
10:40 PM 50.0 °F 42.8 °F 76% 30.02 in 4.0 mi East 9.2 mph - N/A   Drizzle
11:40 PM 50.0 °F 42.8 °F 76% 30.01 in 5.0 mi East 9.2 mph - N/A   Mostly Cloudy